sat.trackr.live / text

‹ back to catalog

STARLINK-11145 [DTC]

NORAD 59945 · 2024-107A

PAYLOAD ACTIVE UNKNOWN

§ Identity

Operator
Country
US
Launch date
2024-06-05
Launch site
AFETR
Launch vehicle
Mass (kg)
RCS (m²)

Purposes: comms

External: N2YO · Heavens-Above · Gunter

§ Orbital elements

Epoch: 2026-05-24T17:21:16.305696Z

Period
91.74 min
Inclination
53.1581°
Eccentricity
0.0001404
Mean motion
15.69704100 rev/d
Perigee alt
358.8 km
Apogee alt
360.7 km
Semi-major
6,737.9 km
B*
1.7297e-5
RAAN
236.7572°
Arg perigee
93.1967°
Mean anomaly
266.9212°
Rev number
11,408

§ Raw data

STARLINK-11145 [DTC]1 59945U 24107A   26144.72310539  .00001506  00000+0  17297-4 0  99942 59945  53.1581 236.7572 0001404  93.1967 266.9212 15.69704100114088

JSON: /api/v1/satellites/59945 · /tle

For live sub-satellite position, see the globe view (requires WebGL).

§ Visibility from observer

Set your observer location to see the next 7 days of passes ≥ 10°. The values pass through the URL so the page stays shareable.

No JS? Fill the form by hand. The geolocation button needs JavaScript.